Location: ?????????
(48.7779°N, 34.2863°E)
Time: 22:22:37
(UTC+00:00)

Daily predictions for brighter satellites

Satellite Brightness Start Highest point End
(mag) Time Altitude Azimuth Time Altitude Azimuth Time Altitude Azimuth
Lacrosse 5 rocket 3.0 16:00:09 10° WNW 16:03:54 28° N 16:07:48 10° NE
Nadezhda 4 Rocket 4.4 16:01:57 10° N 16:07:41 39° ENE 16:13:23 10° SE
HJ-1C 4.0 16:08:24 10° SE 16:11:26 35° ENE 16:14:31 10° N
COSMO-SKYMED 1 2.8 16:07:56 10° N 16:12:17 77° WNW 16:16:38 10° SSW
Ariane Rocket 4.1 16:09:17 10° ESE 16:13:23 25° ENE 16:17:30 10° N
H-2A R/B 2.3 16:08:53 10° SE 16:13:42 49° ENE 16:18:40 10° N
Cosmos 2263 Rocket 3.2 16:12:00 10° SW 16:17:25 51° NW 16:22:54 10° NNE
NOSS 3-2 (C) 4.1 16:11:34 10° NW 16:18:54 70° NE 16:27:17 10° SE
SJ 16-02 4.0 16:15:34 10° WSW 16:18:58 22° NW 16:22:25 10° N
COSMOS 2406 4.4 16:14:30 10° NNW 16:19:14 26° NE 16:23:46 11° E
Cosmos 1689 Rocket 4.1 16:18:28 10° N 16:21:12 34° WNW 16:23:55 10° SW
Cosmos 1844 Rocket 2.9 16:16:37 10° S 16:21:54 46° ESE 16:27:13 10° NE
USA 116 3.8 16:19:19 10° NNE 16:22:55 52° ESE 16:26:56 10° S
NOSS 3-4 (A) 4.4 16:20:23 10° SSE 16:24:58 24° ESE 16:29:44 10° ENE
NOSS 3-4 (C) 4.4 16:20:31 10° SSE 16:25:05 24° ESE 16:29:49 10° ENE
Cosmos 372 Rocket 4.0 16:20:14 10° SSW 16:25:28 84° ESE 16:30:43 10° NNE
Cosmos 1939 Rocket 4.4 16:22:29 10° S 16:26:25 42° W 16:30:23 10° NNW
Cosmos 2278 Rocket4.116:28:24ENE16:28:24ENE16:21:43SE
Cosmos 2034 Rocket 4.3 16:20:38 10° SSE 16:26:40 47° E 16:32:40 10° NNE
Cosmos 1844 4.0 16:23:48 10° S 16:29:07 43° ESE 16:34:26 10° NE
Cosmos 1707 2.9 16:25:49 10° NNW 16:29:40 78° W 16:33:29 10° S
Meteor 2-5 Rocket 4.5 16:24:52 10° N 16:29:59 34° ENE 16:35:11 10° SE
Cosmos 1626 3.8 16:29:10 10° NNE 16:31:39 17° ENE 16:32:55 14° E
Meteor 1-12 Rocket 4.3 16:26:03 10° S 16:31:53 72° E 16:37:38 10° NNE
NOSS 2-2 (E) 4.4 16:34:37 10° WSW 16:38:04 44° NW 16:42:07 10° NE
CENTAUR R/B 3.2 16:30:17 10° NW 16:38:16 81° NE 16:47:05 10° SE
Lacrosse 4 Rocket 3.4 16:35:59 10° N 16:38:16 14° NE 16:40:15 11° ENE
ISS -3.5 16:35:44 10° W 16:39:05 66° NNW 16:41:51 14° ENE
USA 186 2.6 16:39:32 15° SE 16:41:42 32° ENE 16:44:41 10° N
Cosmos 1300 Rocket 3.5 16:38:35 10° S 16:43:00 87° ESE 16:47:29 10° N
Cosmos 1833 Rocket 3.7 16:40:16 10° NNW 16:45:12 29° NE 16:48:29 17° E
Okean 1 Rocket 3.7 16:42:06 10° SSE 16:46:09 34° E 16:50:13 10° NNE
Cosmos 2298 Rocket 4.0 16:40:51 10° SSW 16:46:11 85° ESE 16:51:33 10° NNE
Sich 1 Rocket 4.4 16:42:32 10° SSW 16:46:58 57° WNW 16:51:30 10° N
ATLAS 2AS CENTAUR R/B 3.5 16:40:16 10° S 16:47:22 38° ESE 16:54:26 10° NE
NOSS 2-2 (D) 4.3 16:44:29 10° WSW 16:47:54 44° NW 16:51:52 10° NNE
CSL-04 Debris 4.4 16:43:23 10° S 16:48:45 72° WSW 16:54:10 10° NNW
Resurs 01 Rocket 3.3 16:48:17 15° ENE 16:49:20 17° ENE 16:52:08 10° NNE
SL-14 R/B 4.5 16:46:38 10° NNE 16:49:54 24° ENE 16:50:59 21° E
ATLAS 3B R/B 3.2 16:43:57 10° NW 16:50:26 44° NE 16:55:19 18° E
CSL-04 Rocket 4.0 16:45:21 10° S 16:50:48 73° WSW 16:56:21 10° NNW
BREEZE-M DEB (TANK) 4.0 16:52:23 10° SSW 16:55:46 51° SE 17:06:44 10° ENE
Okean 2 Rocket 3.5 16:52:48 10° SSW 16:57:16 68° W 17:01:44 10° N
Cosmos 1025 Rocket 3.6 16:52:58 10° NNW 16:57:18 61° W 17:01:38 10° S
YAOGAN 1 4.1 16:53:55 10° SSW 16:57:57 38° W 17:02:00 10° NNW
Cosmos 1766 3.8 16:55:21 10° SSE 16:58:57 36° E 17:02:37 10° NNE
Milstar 3 Cent rocket 4.5 17:00:20 10° S 17:01:01 10° S 17:01:42 10° S
SPOT 3 Rocket 4.4 16:59:30 22° ESE 17:01:45 31° ENE 17:06:14 10° N
ARIANE 5 R/B 4.5 17:04:58 14° ENE 17:04:59 14° ENE 17:07:15 10° NNE
Cosmos 1536 Rocket 4.0 17:02:24 10° NNW 17:06:50 65° W 17:11:16 10° S
Cosmos 1125 Rocket 3.4 17:01:45 10° SSW 17:07:03 81° ESE 17:12:24 10° NNE
USA 238 DEB 4.5 17:00:09 10° NW 17:07:10 56° WSW 17:14:27 10° SSE
USA 238 4.4 17:00:15 10° NW 17:07:17 57° WSW 17:14:34 10° SSE
Cosmos 2195 Rocket 4.5 17:03:27 10° N 17:09:40 62° ENE 17:15:30 11° SSE
Abrixas rocket 2.7 17:07:43 10° W 17:10:23 38° SSW 17:10:55 34° S
Cosmos 1464 Rocket 4.4 17:04:47 10° SSW 17:10:52 64° WNW 17:17:03 10° N
CREW DRAGON DEMO-1 DEB 3.5 17:08:41 10° WNW 17:11:37 44° SSW 17:12:23 35° SSE
Cosmos 2026 Rocket 4.1 17:06:14 10° N 17:12:32 57° ENE 17:17:41 16° SSE
Cosmos 1092 Rocket 3.9 17:06:29 10° N 17:12:40 72° E 17:18:52 10° SSE
Resurs 1-3 4.3 17:11:31 30° E 17:12:42 36° ENE 17:16:42 10° N
Cosmos 2285 Rocket 3.9 17:06:51 10° SSW 17:13:07 73° ESE 17:19:29 10° NNE
Cosmos 1892 Rocket 4.2 17:09:38 10° N 17:13:35 33° ENE 17:14:14 31° E
CZ-2C R/B 4.4 17:08:42 10° S 17:13:50 44° W 17:19:15 10° NNW
SJ-6B 2.7 17:12:53 29° SE 17:14:36 62° ENE 17:18:22 10° N
CZ-4 R/B 4.2 17:13:40 10° SW 17:16:51 21° W 17:20:02 10° NW
Cosmos 1428 Rocket 4.5 17:14:56 10° N 17:21:09 62° ENE 17:25:34 20° SSE
Cosmos 1674 3.2 17:17:46 10° NNW 17:21:35 61° W 17:25:21 10° S
MOS 1 Rocket 3.6 17:18:53 10° N 17:23:14 61° WNW 17:27:26 10° SSW
TSX-5 3.9 17:23:01 10° SSW 17:26:51 61° ESE 17:31:47 10° NE
ARGOS 3.9 17:23:39 10° S 17:28:53 54° W 17:34:11 10° NNW
Cosmos 2279 Rocket 4.3 17:28:28 28° SE 17:31:07 42° E 17:36:57 10° NNE
CZ-2C R/B 2.6 17:25:44 10° NNE 17:31:19 73° ESE 17:36:56 10° S
FREGAT/IRIS 3.3 17:33:45 43° NNW 17:33:45 43° NNW 17:35:41 10° NNW
MOS 1 4.3 17:30:21 16° SSE 17:35:01 86° WSW 17:40:46 10° NNW
Cosmos 2082 Rocket 2.8 17:32:58 10° NNW 17:38:14 40° NE 17:39:26 35° E
Cosmos 1340 Rocket 2.9 17:39:40 55° ENE 17:39:40 55° ENE 17:43:10 10° NNE
Cosmos 2098 Rocket 4.4 17:33:32 10° N 17:39:52 39° ENE 17:40:53 37° E
Cosmos 1733 3.1 17:38:59 20° SSW 17:41:32 83° W 17:45:23 10° N
DMSP B5D2-2 4.0 17:36:27 10° NNE 17:41:47 77° ESE 17:47:04 10° S
Lacrosse 5 rocket 2.6 17:39:58 10° NW 17:44:01 34° NNE 17:45:05 30° NE
Cosmos 2142 Rocket 4.5 17:40:01 18° SSE 17:44:37 60° E 17:50:42 10° NNE
Ariane Rocket 3.7 17:47:53 15° S 17:52:02 53° W 17:57:02 10° NNW
Cosmos 1805 4.4 17:49:29 10° SSW 17:53:13 44° WNW 17:57:01 10° N
H-2A R/B 4.1 17:49:17 10° SSW 17:53:24 25° W 17:57:38 10° NW
OBJECT-B 1.7 17:55:36 47° NNW 17:55:36 47° NNW 17:58:04 10° NNW
Exosat Rocket 4.2 17:54:49 10° SW 17:59:57 53° WNW 18:04:55 10° NNE
Cosmos 909 Rocket 4.2 17:55:07 10° NW 18:01:38 59° NE 18:03:01 49° E
Terra 3.9 18:03:57 14° NE 18:03:57 14° NE 18:05:26 10° NNE
COSMOS 2406 3.3 17:58:25 10° NNW 18:04:05 70° WSW 18:05:51 44° S
Okean 1-7 Rocket 3.6 18:00:02 10° N 18:04:24 75° NE 18:04:24 75° NE
Cosmos 1844 Rocket 4.2 18:00:51 10° WSW 18:05:56 35° NW 18:11:05 10° NNE
Cosmos 1626 3.2 18:03:36 10° NNW 18:07:07 41° W 18:07:28 40° WSW
SPOT 1/Viking Rocket 4.3 18:08:05 36° NE 18:08:05 36° NE 18:12:08 10° N
Cosmos 1455 Rocket 4.1 18:10:13 35° NNE 18:10:13 35° NNE 18:12:50 10° NNE
Cosmos 2278 Rocket 2.1 18:03:54 10° SSW 18:10:00 63° E 18:15:07 10° NNE
NOSS 3-4 (A) 3.5 18:09:11 10° SW 18:15:07 76° NW 18:21:34 10° NE
NOSS 3-4 (C) 3.5 18:09:17 10° SW 18:15:13 77° NW 18:21:40 10° NE
Cosmos 2266 Rocket 4.0 18:10:09 10° N 18:15:59 55° ENE 18:15:59 55° ENE
ISS -1.8 18:12:52 10° WNW 18:14:49 30° NW 18:14:49 30° NW
Meteor 1-24 Rocket 4.4 18:10:49 10° NNW 18:16:11 51° W 18:19:24 24° SSW
Lacrosse 4 Rocket 2.2 18:13:34 10° NNW 18:16:33 46° NNW 18:16:33 46° NNW
Meteor 2-19 Rocket 4.3 18:12:22 10° N 18:18:32 89° E 18:19:42 61° S
Resurs 01 Rocket 2.0 18:25:52 62° WNW 18:25:52 62° WNW 18:29:47 10° NNW
CENTAUR R/B 4.5 18:21:32 10° NW 18:28:37 33° WSW 18:34:46 15° SSW
Cosmos 1833 Rocket 3.0 18:23:56 10° NW 18:29:31 60° WSW 18:30:12 56° SW
Cosmos 2251 Rocket 3.6 18:28:15 10° NNW 18:33:15 77° NW 18:33:15 77° NW
ERS-1 Rocket 4.2 18:37:40 32° NNE 18:37:40 32° NNE 18:40:44 10° N
ATLAS 2AS CENTAUR R/B 3.2 18:30:04 10° SW 18:38:02 70° NW 18:45:52 10° NE
ARIANE 5 R/B 3.9 18:42:31 37° NNW 18:42:31 37° NNW 18:45:13 10° NNW
SPOT 3 Rocket 4.4 18:40:11 40° SW 18:41:00 43° W 18:45:56 10° NNW
ATLAS 3B R/B 3.0 18:34:40 10° NW 18:41:25 59° WSW 18:42:35 53° SSW
Meteor 1-21 Rocket 4.4 18:45:35 10° NNW 18:50:49 73° NW 18:50:49 73° NW
Cosmos 1655 Rocket 4.2 18:46:07 10° NNW 18:52:21 67° W 18:52:53 64° SW
SPOT 5 4.2 18:54:34 37° NNE 18:54:34 37° NNE 18:57:58 10° N
Cosmos 2082 Rocket 3.4 19:17:07 10° NW 19:21:17 37° W 19:21:17 37° W
Lacrosse 5 rocket 3.9 19:19:07 10° NW 19:20:43 22° NW 19:20:43 22° NW
Terra 4.0 19:42:50 22° NNW 19:42:50 22° NNW 19:44:32 10° NNW
Cosmos 2278 Rocket 4.0 19:51:32 20° W 19:54:03 27° NW 19:58:51 10° NNE
ATLAS 2AS CENTAUR R/B 4.5 20:23:25 10° W 20:30:24 32° NNW 20:37:10 10° NE
CZ-4C R/B 4.4 21:00:08 23° NNE 21:00:08 23° NNE 21:03:15 10° NE
Cosmos 2297 Rocket 4.5 21:12:36 10° NNW 21:14:40 19° N 21:14:40 19° N
SL-16 R/B 4.2 22:05:31 27° NNE 22:05:31 27° NNE 22:09:09 10° N
USA 234 4.1 22:50:08 10° ENE 22:56:08 44° N 22:56:08 44° N
ADEOS II 4.4 22:54:19 10° NE 22:56:28 17° ENE 22:56:28 17° ENE
SJ 16-02 4.4 23:01:36 10° NNE 23:02:26 12° NNE 23:02:26 12° NNE
Cosmos 1697 Rocket 4.3 23:17:28 30° NE 23:17:28 30° NE 23:20:24 10° NE
Cosmos 1980 Rocket 3.9 23:23:46 28° ENE 23:23:46 28° ENE 23:27:03 10° NE
Cosmos 2263 Rocket 3.7 23:17:23 10° NNW 23:22:18 33° NE 23:22:18 33° NE
Lacrosse 5 3.6 23:43:16 29° NE 23:43:16 29° NE 23:45:46 10° NE
SL-16 R/B 4.4 23:42:52 15° ESE 23:43:49 16° E 23:47:10 10° ENE
SL-16 R/B 4.0 23:50:37 27° NNW 23:50:37 27° NNW 23:53:17 10° NNW
Resurs 1-4 Rocket 3.5 23:42:57 10° NNE 23:45:52 34° N 23:45:52 34° N
CZ-2D R/B 3.4 23:49:18 10° N 23:52:17 34° N 23:52:17 34° N
